This is the latest recevied weather packets stored in our database for station/object N0NB. If no packets are shown the sender has not sent any weather packets the latest 10 day(s).
| Time | Temp. | Humidity | Pressure | Rain* | Wind** | Luminosity | Snow |
|---|---|---|---|---|---|---|---|
| 1788355517 | 26.11° C | 66% | 1012.3 hPa | 0 mm | - | 148 W/m² | - |
| 1788354917 | 25.56° C | 65% | 1012.3 hPa | 0 mm | - | 51 W/m² | - |
| 1788354316 | 25.56° C | 66% | 1012.4 hPa | 0 mm | - | 97 W/m² | - |
| 1788353717 | 25.56° C | 66% | 1012.3 hPa | 0 mm | - | 62 W/m² | - |
| 1788353116 | 25.56° C | 65% | 1012.3 hPa | 0 mm | - | 45 W/m² | - |
| 1788352516 | 25° C | 65% | 1012.3 hPa | 0 mm | - | 46 W/m² | - |
| 1788351916 | 25.56° C | 65% | 1012.1 hPa | 0 mm | - | 31 W/m² | - |
| 1788351316 | 25.56° C | 63% | 1012.3 hPa | 0 mm | - | 15 W/m² | - |
| 1788350716 | 25.56° C | 63% | 1012.2 hPa | 0 mm | - | 6 W/m² | - |
| 1788350116 | 25.56° C | 63% | 1012 hPa | 0 mm | - | 0 W/m² | - |
| 1788349516 | 25.56° C | 63% | 1012 hPa | 0 mm | - | 0 W/m² | - |
| 1788348917 | 25.56° C | 63% | 1012 hPa | 0 mm | - | 0 W/m² | - |
| 1788348316 | 25.56° C | 63% | 1011.9 hPa | 0 mm | - | 0 W/m² | - |
| 1788347716 | 25.56° C | 63% | 1012 hPa | 0 mm | - | 0 W/m² | - |
| 1788347116 | 25.56° C | 63% | 1012.1 hPa | 0 mm | - | 0 W/m² | - |
| 1788346516 | 25.56° C | 63% | 1012.1 hPa | 0 mm | - | 0 W/m² | - |
| 1788345916 | 25.56° C | 63% | 1012.2 hPa | 0 mm | - | 0 W/m² | - |
| 1788345316 | 25.56° C | 63% | 1012.2 hPa | 0 mm | - | 0 W/m² | - |
| 1788344716 | 25° C | 64% | 1012 hPa | 0 mm | - | 0 W/m² | - |
| 1788344116 | 25° C | 65% | 1012.1 hPa | 0 mm | - | 0 W/m² | - |
| 1788343516 | 25.56° C | 64% | 1012.2 hPa | 0 mm | - | 0 W/m² | - |
| 1788342916 | 25.56° C | 64% | 1012.2 hPa | 0 mm | - | 0 W/m² | - |
| 1788342316 | 25.56° C | 63% | 1012.2 hPa | 0 mm | - | 0 W/m² | - |
| 1788341716 | 25.56° C | 64% | 1012.1 hPa | 0 mm | - | 0 W/m² | - |
| 1788341116 | 25.56° C | 63% | 1012.2 hPa | 0 mm | - | 0 W/m² | - |
* Rain latest hour (hover to see other rain measurements)
** Current wind speed in m/s (hover to see current wind gust speed)